This is the latest recevied weather packets stored in our database for station/object PY2UEP-1. If no packets are shown the sender has not sent any weather packets the latest 10 day(s).
| Time | Temp. | Humidity | Pressure | Rain* | Wind** | Luminosity | Snow |
|---|---|---|---|---|---|---|---|
| 1787726408 | 17.22° C | 91% | 1016.7 hPa | 2.54 mm | - | - | - |
| 1787726108 | 17.22° C | 90% | 1017 hPa | 2.54 mm | - | - | - |
| 1787725808 | 17.22° C | 90% | 1016.9 hPa | 2.54 mm | - | - | - |
| 1787725508 | 17.22° C | 90% | 1016.7 hPa | 2.54 mm | - | - | - |
| 1787725208 | 17.22° C | 90% | 1017.5 hPa | 2.54 mm | - | - | - |
| 1787724908 | 17.22° C | 90% | 1017.6 hPa | 2.54 mm | - | - | - |
| 1787724608 | 17.22° C | 92% | 1018 hPa | 2.54 mm | - | - | - |
| 1787724308 | 17.22° C | 91% | 1018.1 hPa | 2.29 mm | - | - | - |
| 1787724012 | 17.22° C | 91% | 1018.2 hPa | 2.29 mm | - | - | - |
| 1787723722 | 17.22° C | 90% | 1018.2 hPa | 2.29 mm | - | - | - |
| 1787723424 | 17.78° C | 89% | 1018.4 hPa | 2.29 mm | - | - | - |
| 1787723108 | 17.78° C | 86% | 1018.4 hPa | 2.03 mm | - | - | - |
| 1787722832 | 18.33° C | 84% | 1018.5 hPa | 2.03 mm | - | - | - |
| 1787722508 | 18.33° C | 83% | 1018.4 hPa | 1.78 mm | - | - | - |
| 1787722208 | 18.33° C | 84% | 1018.4 hPa | 1.78 mm | - | - | - |
| 1787721908 | 18.33° C | 85% | 1018.6 hPa | 1.78 mm | - | - | - |
| 1787721608 | 17.78° C | 86% | 1018.6 hPa | 1.78 mm | - | - | - |
| 1787721308 | 17.78° C | 87% | 1018.4 hPa | 1.78 mm | - | - | - |
| 1787721008 | 18.33° C | 83% | 1018.4 hPa | 1.78 mm | - | - | - |
| 1787720708 | 18.33° C | 81% | 1018.3 hPa | 1.52 mm | - | - | - |
| 1787720408 | 17.78° C | 86% | 1018.3 hPa | 1.52 mm | - | - | - |
| 1787720108 | 17.78° C | 88% | 1018.2 hPa | 1.27 mm | - | - | - |
| 1787719807 | 17.78° C | 86% | 1018.2 hPa | 1.27 mm | - | - | - |
| 1787719508 | 17.78° C | 86% | 1018.4 hPa | 1.27 mm | - | - | - |
| 1787719207 | 17.22° C | 90% | 1018.5 hPa | 1.27 mm | - | - | - |
* Rain since midnight (hover to see other rain measurements)
** Current wind speed in m/s (hover to see current wind gust speed)